Weather History for Rexburg, ID

Change the Weather History Date:

Friday, March 1, 2013

  Actual Average Record
Temperature  
Mean Temperature 29 °F 27 °F  
Max Temperature 32 °F 38 °F 43 °F (2000)
Min Temperature 25 °F 17 °F -1 °F (2002)
Degree Days  
Heating Degree Days 36 38  
Month to date heating degree days 36 38  
Since 1 July heating degree days 5703 6011  
Cooling Degree Days 0 0  
Month to date cooling degree days 0 0  
Year to date cooling degree days 0 0  
Moisture  
Dew Point 28 °F    
Average Humidity 96    
Maximum Humidity 100    
Minimum Humidity 92    
Precipitation  
Precipitation 0.00 in 0.03 in 0.25 in (2005)
Month to date precipitation 0.00 0.03  
Year to date precipitation 1.58 1.60  
Sea Level Pressure  
Sea Level Pressure 30.55 in    
Wind  
Wind Speed 1 mph (NNE)    
Max Wind Speed 6 mph    
Max Gust Speed 7 mph    
Visibility 4 miles    
Events Fog    
T = Trace of Precipitation, MM = Missing Value Source: NWS Daily Summary

Daily Weather History Graph

Daily Weather History Graph

Search for Another Location

Airport:

Trip Planner

Search our weather history database for the weather conditions in past years. The results will help you decide how hot, cold, wet, or windy it might be!

Date:

Astronomy

Mar. 01, 2013 Rise Set
Actual Time 7:03 AM MST 6:16 PM MST
Civil Twilight 6:34 AM MST 6:45 PM MST
Nautical Twilight 6:01 AM MST 7:18 PM MST
Astronomical Twilight 5:27 AM MST 7:51 PM MST
Moon 11:04 PM MST (3/1) 8:42 AM MST (3/1)
Length of Visible Light 12h 10m
Length of Day
11h 12m
Waning Gibbous, 83% of the Moon is Illuminated
Mar 1
Waning Gibbous
Mar 4
Last Quarter
Mar 11
New
Mar 19
First Quarter
Mar 27
Full

Hourly Weather History & Observations

Time (MST) Temp. Windchill Dew Point Humidity Pressure Visibility Wind Dir Wind Speed Gust Speed Precip Events Conditions
12:14 AM 24.8 °F 20.5 °F 23.0 °F 93% 30.45 in 6.0 mi ENE 3.5 mph - N/A   Overcast
12:53 AM 25.0 °F - 23.0 °F 92% 30.58 in 7.0 mi Calm Calm - N/A   Overcast
2:53 AM 25.0 °F 20.7 °F 24.1 °F 96% 30.58 in 7.0 mi WNW 3.5 mph - N/A   Overcast
3:37 AM 24.8 °F - 24.8 °F 100% 30.46 in 8.0 mi Calm Calm - N/A   Overcast
3:53 AM 25.0 °F - 24.1 °F 96% 30.58 in 8.0 mi Calm Calm - N/A   Overcast
4:53 AM 26.1 °F - 24.1 °F 92% 30.60 in 7.0 mi Calm Calm - N/A   Overcast
5:18 AM 26.6 °F - 24.8 °F 93% 30.49 in 7.0 mi Calm Calm - N/A   Overcast
5:53 AM 27.0 °F - 25.0 °F 92% 30.61 in 5.0 mi Calm Calm - N/A   Overcast
6:53 AM 26.1 °F 21.9 °F 25.0 °F 96% 30.62 in 2.5 mi North 3.5 mph - N/A   Overcast
7:02 AM 26.6 °F - 26.6 °F 100% 30.50 in 1.5 mi Calm Calm - N/A   Overcast
7:17 AM 26.6 °F - 26.6 °F 100% 30.50 in 0.2 mi Calm Calm - N/A Fog Light Freezing Fog
7:53 AM 26.1 °F 21.9 °F 26.1 °F 100% 30.64 in 0.2 mi NE 3.5 mph - N/A Fog Light Freezing Fog
8:53 AM 27.0 °F - 27.0 °F 100% 30.64 in 0.2 mi Calm Calm - N/A Fog Light Freezing Fog
9:01 AM 26.6 °F 22.6 °F 26.6 °F 100% 30.52 in 0.5 mi NE 3.5 mph - N/A Fog Light Freezing Fog
9:22 AM 28.4 °F - 26.6 °F 93% 30.51 in 1.0 mi Calm Calm - N/A   Overcast
9:53 AM 28.0 °F - 27.0 °F 96% 30.61 in 1.2 mi Calm Calm - N/A   Overcast
10:53 AM 28.0 °F - 27.0 °F 96% 30.63 in 1.2 mi Calm Calm - N/A   Overcast
11:34 AM 28.4 °F - 28.4 °F 100% 30.51 in 2.0 mi Calm Calm - N/A   Overcast
12:50 PM 28.4 °F - 28.4 °F 100% 30.50 in 3.0 mi Calm Calm - N/A   Overcast
12:53 PM 28.9 °F - 28.0 °F 96% 30.61 in 3.0 mi Calm Calm - N/A   Overcast
1:12 PM 28.4 °F 24.6 °F 28.4 °F 100% 30.49 in 2.5 mi SW 3.5 mph - N/A   Overcast
2:53 PM 30.0 °F - 28.9 °F 96% 30.61 in 2.0 mi Calm Calm - N/A   Overcast
3:22 PM 30.2 °F - 30.2 °F 100% 30.49 in 3.0 mi Calm Calm - N/A   Overcast
3:37 PM 30.2 °F - 28.4 °F 93% 30.49 in 2.5 mi Calm Calm - N/A   Overcast
3:53 PM 32.0 °F - 30.0 °F 92% 30.59 in 2.5 mi Calm Calm - N/A   Overcast
4:06 PM 32.0 °F - 30.2 °F 93% 30.49 in 3.0 mi Calm Calm - N/A   Overcast
4:19 PM 32.0 °F - 30.2 °F 93% 30.49 in 2.5 mi Calm Calm - N/A   Overcast
4:28 PM 32.0 °F - 30.2 °F 93% 30.49 in 2.0 mi Calm Calm - N/A   Overcast
4:53 PM 30.9 °F - 30.0 °F 96% 30.59 in 1.8 mi Calm Calm - N/A   Overcast
5:53 PM 30.9 °F - 30.0 °F 96% 30.60 in 1.2 mi Calm Calm - N/A   Overcast
6:39 PM 30.2 °F 25.4 °F 30.2 °F 100% 30.49 in 2.0 mi NNE 4.6 mph - N/A   Overcast
6:53 PM 30.9 °F 27.5 °F 30.0 °F 96% 30.60 in 2.0 mi NNE 3.5 mph - N/A   Overcast
7:37 PM 30.2 °F 25.4 °F 30.2 °F 100% 30.49 in 3.0 mi NE 4.6 mph - N/A   Overcast
7:53 PM 30.9 °F - 30.9 °F 100% 30.59 in 3.0 mi Calm Calm - N/A   Overcast
8:53 PM 30.9 °F 27.5 °F 30.9 °F 100% 30.59 in 3.0 mi NE 3.5 mph - N/A   Overcast
9:53 PM 30.9 °F 27.5 °F 30.0 °F 96% 30.59 in 4.0 mi NE 3.5 mph - N/A   Overcast
10:14 PM 30.2 °F 26.7 °F 30.2 °F 100% 30.50 in 4.0 mi North 3.5 mph - N/A   Overcast
10:53 PM 30.9 °F - 30.9 °F 100% 30.59 in 7.0 mi Calm Calm - N/A   Overcast
11:05 PM 30.2 °F - 30.2 °F 100% 30.49 in 7.0 mi Calm Calm - N/A   Overcast
11:34 PM 30.2 °F - 30.2 °F 100% 30.50 in 7.0 mi Calm Calm - N/A   Overcast
11:53 PM 30.9 °F - 30.0 °F 96% 30.58 in 7.0 mi Calm Calm - N/A   Overcast